Frankfort, KY

6:50 AM EST on November 25, 2017 (GMT -0500)
Capital City

Weather History for KFFT - January, 2014

Change the Weather History Date:

Sunday, January 26, 2014

  Actual Average Record
Temperature  
Mean Temperature 28 °F 33 °F  
Max Temperature 49 °F 42 °F 77 °F (1950)
Min Temperature 7 °F 24 °F -14 °F (1940)
Degree Days  
Heating Degree Days 37 32  
Month to date heating degree days 991 851  
Since 1 July heating degree days 2922 2683  
Cooling Degree Days 0 0  
Month to date cooling degree days 0 0  
Year to date cooling degree days 0 0  
Moisture  
Dew Point 17 °F    
Average Humidity 59    
Maximum Humidity 82    
Minimum Humidity 35    
Precipitation  
Precipitation 0.00 in 0.09 in 1.03 in (1978)
Month to date precipitation 2.28 2.76  
Year to date precipitation 2.28 2.76  
Sea Level Pressure  
Sea Level Pressure 29.74 in    
Wind  
Wind Speed 10 mph (SW)    
Max Wind Speed 29 mph    
Max Gust Speed 37 mph    
Visibility 10 miles    
Events      
T = Trace of Precipitation, MM = Missing Value Source: NWS Daily Summary

Daily Weather History Graph

Daily Weather History Graph

Search for Another Location

Airport or City:

Trip Planner

Search our weather history database for the weather conditions in past years. The results will help you decide how hot, cold, wet, or windy it might be!

Date:

Astronomy

Jan. 26, 2014 Rise Set
Actual Time 7:49 AM EST 5:55 PM EST
Civil Twilight 7:20 AM EST 6:23 PM EST
Nautical Twilight 6:49 AM EST 6:55 PM EST
Astronomical Twilight 6:17 AM EST 7:27 PM EST
Moon 3:25 AM EST (1/26) 1:44 PM EST (1/26)
Length of Visible Light 11h 03m
Length of Day
10h 06m
Waning Crescent, 24% of the Moon is Illuminated
Jan 26
Waning Crescent
Jan 30
New
Feb 6
First Quarter
Feb 14
Full
Feb 22
Last Quarter

Hourly Weather History & Observations

Time (EST) Temp. Windchill Dew Point Humidity Pressure Visibility Wind Dir Wind Speed Gust Speed Precip Events Conditions
12:53 AM 15.1 °F 6.4 °F -2.0 °F 47% 29.98 in 10.0 mi West 5.8 mph - N/A   Clear
1:53 AM 12.0 °F - -2.0 °F 53% 29.94 in 10.0 mi Calm Calm - N/A   Clear
2:53 AM 8.1 °F - -0.0 °F 70% 29.96 in 10.0 mi Calm Calm - N/A   Clear
3:53 AM 15.1 °F 6.4 °F 3.0 °F 59% 29.94 in 10.0 mi South 5.8 mph - N/A   Mostly Cloudy
4:53 AM 16.0 °F 7.4 °F 3.0 °F 57% 29.93 in 10.0 mi SSW 5.8 mph - N/A   Overcast
5:53 AM 17.1 °F 6.6 °F 3.9 °F 56% 29.87 in 10.0 mi South 8.1 mph - N/A   Overcast
6:53 AM 19.0 °F 7.5 °F 6.1 °F 57% 29.82 in 10.0 mi South 10.4 mph - N/A   Overcast
7:53 AM 21.0 °F 8.6 °F 3.9 °F 48% 29.78 in 10.0 mi South 12.7 mph - N/A   Mostly Cloudy
8:53 AM 23.0 °F 10.6 °F 7.0 °F 50% 29.73 in 10.0 mi South 13.8 mph 21.9 mph N/A   Overcast
9:53 AM 27.0 °F 14.7 °F 8.1 °F 45% 29.70 in 10.0 mi South 16.1 mph 24.2 mph N/A   Overcast
10:53 AM 33.1 °F 21.9 °F 9.0 °F 37% 29.72 in 10.0 mi SSW 18.4 mph 27.6 mph N/A   Scattered Clouds
11:53 AM 37.0 °F 25.9 °F 17.1 °F 44% 29.70 in 10.0 mi SSW 23.0 mph 31.1 mph N/A   Mostly Cloudy
12:53 PM 41.0 °F 30.7 °F 23.0 °F 49% 29.66 in 10.0 mi SW 25.3 mph 32.2 mph N/A   Clear
1:53 PM 45.0 °F 37.6 °F 26.1 °F 48% 29.65 in 10.0 mi SW 17.3 mph 24.2 mph N/A   Clear
2:53 PM 48.0 °F - 28.0 °F 46% 29.65 in 10.0 mi WSW 16.1 mph 23.0 mph N/A   Clear
3:53 PM 48.0 °F - 30.0 °F 50% 29.62 in 10.0 mi SW 13.8 mph - N/A   Clear
4:53 PM 48.9 °F - 30.9 °F 50% 29.61 in 10.0 mi SW 12.7 mph - N/A   Clear
5:53 PM 46.0 °F 44.8 °F 30.0 °F 54% 29.62 in 10.0 mi WSW 3.5 mph - N/A   Clear
6:53 PM 37.9 °F - 30.0 °F 73% 29.63 in 10.0 mi Calm Calm - N/A   Partly Cloudy
7:53 PM 36.0 °F - 28.9 °F 76% 29.64 in 10.0 mi Calm Calm - N/A   Partly Cloudy
8:53 PM 37.0 °F 34.5 °F 30.9 °F 79% 29.65 in 10.0 mi SW 3.5 mph - N/A   Overcast
9:53 PM 37.9 °F 35.5 °F 32.0 °F 79% 29.65 in 10.0 mi SSW 3.5 mph - N/A   Overcast
10:53 PM 43.0 °F 38.8 °F 32.0 °F 65% 29.65 in 10.0 mi SW 6.9 mph - N/A   Overcast
11:53 PM 46.0 °F 40.2 °F 33.1 °F 61% 29.64 in 10.0 mi SW 12.7 mph - N/A   Overcast